Location: Unspecified
(33.6682°S, 0.0000°E)
Time: 03:17:26
(UTC+00:00)

Vanguard 2 Rocket - Pass Details

Date: 23 June 2019
Orbit: 554 x 3326 km, 32.9° (Epoch: 22 July)

Event Time Altitude Azimuth Distance (km) Brightness Sun altitude
Rises 12:34:50 0° 262° (W) 5,238 10.8 32.4°
Reaches altitude 10° 12:39:01 10° 263° (W) 3,778 10.2 32.2°
Maximum altitude 12:47:51 71° 344° (NNW) 1,057 8.2 31.9°
Drops below altitude 10° 12:53:00 10° 68° (ENE) 2,255 9.1 31.6°
Sets 12:54:57 0° 70° (ENE) 3,012 9.7 31.5°
